x

9415144 - Port Chicago, Ca (pcoc1) Weather Station

10:30pm - Mon 31st Aug 2015 All times are PDT. -7 hours from GMT.

  • Wind
    13mph, 16mph gusts
  • Sea Temp 71°f
  • Air Temp 65°f
  • Sea Pressure 1010.6mb
  • 9415144 - Port Chicago, Ca
  • 9415144 - Port Chicago, Ca

More Historic Weather Station data

Upgrade to MSW Pro to gain access to the past 30 days of data for over 8000 Wavebouys and Weather Stations around the globe.

Join Pro

Comparision Forecast

View Surf forecast
   
Mon 08/31 10:30pm 13 16 mph 1010.6mb 71f 65f
10:24pm 13 17 mph 1010.6mb 72f 66f
10:18pm 14 18 mph 1010.6mb 72f 66f
10:12pm 11 17 mph 1010.6mb 72f 66f
10:06pm 10 18 mph 1010.6mb 72f 67f
10:00pm 13 17 mph 1010.7mb 72f -
9:54pm 11 17 mph 1010.7mb 72f -
9:48pm 9 13 mph 1010.8mb 72f 67f
9:42pm 8 11 mph 1010.8mb 72f 68f
9:36pm 8 11 mph 1010.9mb 72f 69f
9:30pm 6 9 mph 1010.9mb 72f 69f
9:24pm 6 7 mph 1010.9mb 72f 69f
9:18pm 5 8 mph 1010.8mb 72f 69f
9:12pm 6 9 mph 1010.8mb 72f 70f
9:06pm 8 10 mph 1010.7mb 72f 70f
9:00pm 8 9 mph - 72f 70f
8:54pm 7 10 mph - 72f 72f
8:48pm 7 10 mph 1010.5mb 72f 72f
8:42pm 9
mph
1010.5mb 72f 73f
8:36pm 9 11 mph 1010.5mb 72f 73f
8:30pm 9 11 mph 1010.5mb 72f 72f
8:24pm 10 13 mph 1010.4mb 72f 72f
8:18pm 11 15 mph 1010.4mb 72f 72f
8:12pm 13 14 mph 1010.4mb 72f 72f
8:06pm 11 14 mph 1010.4mb 72f 73f
8:00pm 10 13 mph 1010.4mb 72f 73f
7:54pm 9 10 mph 1010.3mb 72f 73f
7:48pm 9 13 mph 1010.3mb 72f 73f
7:42pm 10 13 mph 1010.2mb 72f 74f
7:36pm 9 11 mph 1010.1mb 72f 75f
7:30pm 10 13 mph 1010.1mb 72f 75f
7:24pm 10 13 mph 1010.1mb 72f 75f
7:18pm 9 11 mph - 72f 76f
7:12pm 9 11 mph - 72f 76f
7:06pm 10 13 mph - 72f 77f
7:00pm 11 15 mph 1010.1mb 72f 77f
6:54pm 13 15 mph 1010.1mb 72f 78f
6:48pm 13 17 mph 1010.1mb 72f 77f
6:42pm 15 17 mph 1010.1mb 72f 77f
6:36pm 16 18 mph 1010.1mb 72f 78f
6:30pm 15 17 mph 1010.1mb 72f -
6:24pm 13 14 mph 1010.1mb 72f -
6:18pm 13 14 mph 1010mb 72f -
6:12pm 14 15 mph 1010mb 72f -
6:06pm 11 15 mph 1010mb 72f -
6:00pm 14 15 mph 1010mb 72f 81f
5:54pm 14 15 mph 1010mb 72f 81f
5:48pm 13 15 mph 1010mb 72f 80f
5:42pm 13 15 mph 1010mb 72f 80f
5:36pm 14 15 mph 1010.1mb 72f 80f
5:30pm 14 16 mph 1010.1mb 72f 81f
5:24pm 14 17 mph 1010.2mb 72f 81f
5:18pm 15 17 mph 1010.2mb 72f 82f
5:12pm 13 16 mph 1010.2mb 72f 82f
5:06pm 14 16 mph 1010.3mb 72f 82f
5:00pm 14 17 mph 1010.3mb 72f 83f
4:54pm 14 17 mph 1010.3mb 72f 83f
4:48pm 14 15 mph 1010.3mb 72f 83f
4:42pm 14 16 mph 1010.3mb 72f 83f
4:36pm 14 16 mph 1010.4mb 72f 83f
4:00pm 11 14 mph 1010.7mb 72f 83f
3:54pm 11 14 mph 1010.8mb 72f 83f
3:48pm 13 14 mph 1010.8mb 72f 82f
3:42pm 14 15 mph 1010.8mb 72f 82f
3:36pm 14 16 mph 1010.9mb 72f 82f
3:30pm 14 16 mph 1011mb 72f 83f
3:24pm 14 15 mph 1011.1mb 72f 83f
3:18pm 13 14 mph 1011.2mb 72f 82f
3:12pm 11 15 mph 1011.2mb 72f 82f
3:06pm 13 14 mph 1011.3mb 72f 81f
3:00pm 11 14 mph 1011.4mb 72f 80f
2:54pm 10 13 mph 1011.4mb 72f 80f
2:48pm 11 14 mph 1011.4mb 72f 80f
2:42pm 13 14 mph 1011.5mb 72f 80f
2:36pm 11 14 mph 1011.5mb 72f 79f
2:30pm 11 14 mph 1011.6mb 73f 80f
2:24pm 11 14 mph 1011.7mb 73f 79f
2:18pm 13
mph
1011.9mb 73f 79f
2:12pm 13
mph
1012mb 73f 78f
2:06pm 13
mph
1012mb 73f 78f
2:00pm 13
mph
1012.1mb 73f 78f
1:54pm 11
mph
1012.2mb 73f 78f
1:48pm 9 10 mph 1012.3mb 73f 78f
1:42pm 8 10 mph 1012.3mb 72f 78f
1:36pm 9 10 mph 1012.3mb 72f 78f
1:30pm 8 9 mph 1012.4mb 72f 78f
1:24pm 8 9 mph 1012.3mb 72f 79f
1:18pm 7 9 mph 1012.4mb 72f 80f
1:12pm 7 8 mph 1012.4mb 72f 80f
1:06pm 6 8 mph 1012.5mb 72f 79f
1:00pm 7
mph
1012.6mb 72f 79f
12:54pm 6 7 mph 1012.7mb 72f 78f
12:48pm 6 8 mph 1012.8mb 72f 78f
12:42pm 7 8 mph 1012.8mb 72f 78f
12:36pm 7 8 mph 1012.9mb 72f 78f
12:30pm 7 8 mph 1012.9mb 72f 78f
12:24pm 6 7 mph 1013mb 72f 78f
12:18pm 7
mph
1013.1mb 72f 78f
12:12pm 6 7 mph 1013.2mb 72f 78f
12:06pm 6 8 mph 1013.2mb 72f 77f
12:00pm 7 8 mph 1013.2mb 71f 76f
11:54am 7 8 mph 1013.3mb 71f 76f
11:48am 7 8 mph 1013.4mb 71f 76f
11:42am 7 8 mph 1013.4mb 71f 76f
11:36am 7 8 mph 1013.4mb 71f 75f
11:30am 6 8 mph 1013.5mb 71f 75f
11:24am 6 8 mph 1013.5mb 71f 74f
11:18am 7 8 mph 1013.6mb 71f 74f
11:12am 7 8 mph 1013.7mb 71f 73f
11:06am 8 9 mph 1013.7mb 71f 73f
11:00am 8 10 mph 1013.7mb 71f 73f
10:54am 8 9 mph 1013.7mb 71f 73f
10:48am 8 9 mph 1013.7mb 71f 72f
10:42am 9 10 mph 1013.8mb 71f 72f
10:36am 9 10 mph 1013.7mb 71f 71f
10:30am 10
mph
1013.8mb 71f 71f
10:24am 9 10 mph 1013.8mb 71f 71f
10:18am 9 11 mph 1013.8mb 71f 71f
10:12am 8 11 mph 1013.8mb 71f 71f
10:06am 9 10 mph 1013.8mb 71f 70f
10:00am 6 13 mph 1013.8mb 71f 71f
9:54am 8 9 mph 1013.8mb 71f 70f
9:48am 7 9 mph 1013.8mb 71f 70f
9:42am 6 9 mph 1013.8mb 71f 70f
9:36am 6 9 mph 1013.8mb 71f 70f
9:30am 8 10 mph 1013.9mb 71f 69f
9:24am 7 10 mph 1013.9mb 71f 69f
9:18am 8 9 mph 1013.9mb 71f 69f
9:12am 9 11 mph 1013.9mb 71f 69f
9:06am 7 9 mph 1014mb 71f 68f
9:00am 8 10 mph 1013.9mb 71f 68f
Fri 08/28 10:30am 11
mph
1012.8mb 71f 75f
10:24am 10 11 mph 1012.8mb 71f 75f
10:18am 10 13 mph 1012.8mb 71f 75f
10:12am 11 14 mph 1012.9mb 71f 76f
10:06am 10 13 mph 1012.9mb 71f 76f
10:00am 10 11 mph 1012.9mb 71f 76f
9:54am 8 10 mph 1012.9mb 71f 76f
9:48am 8 10 mph 1012.9mb 71f 76f
9:42am 9 11 mph 1012.9mb 71f 75f
9:36am 7 10 mph 1012.8mb 71f 75f
9:30am 8 10 mph 1012.8mb 70f 75f
9:24am 9 10 mph 1012.8mb 70f 74f
9:18am 8 11 mph 1012.9mb 70f 74f
9:12am 9 11 mph 1012.9mb 70f 74f
9:06am 9 10 mph 1012.8mb 70f 73f
9:00am 6 10 mph 1012.9mb 70f 73f
8:54am 7 11 mph 1012.9mb 70f 73f
8:48am 10 13 mph 1013mb 70f 73f
8:42am 9 11 mph 1012.9mb 70f 73f
8:36am 9 11 mph 1012.9mb 70f 73f
8:30am 9 11 mph 1012.9mb 70f 72f
8:24am 9 13 mph 1013mb 70f 72f
8:18am 10 13 mph 1013mb 70f 71f
8:12am 9 11 mph 1013mb 70f 71f
8:06am 9 10 mph 1012.9mb 70f 71f
8:00am 8 9 mph 1012.9mb 70f 71f
7:54am 8 9 mph 1012.9mb 70f 71f
7:48am 8 10 mph 1012.8mb 70f 71f
7:42am 9 13 mph 1012.7mb 70f 71f
7:36am 10 13 mph 1012.8mb 70f 71f
7:30am 9 11 mph 1012.8mb 70f 71f
7:24am 8 10 mph 1012.7mb 70f 71f
7:18am 8 10 mph 1012.6mb 70f 70f
7:12am 9 10 mph 1012.5mb 70f 70f
7:06am 9 11 mph 1012.5mb 70f 69f
7:00am 10 11 mph 1012.4mb 70f 69f
6:54am 10 11 mph 1012.4mb 70f 69f
6:48am 9 11 mph 1012.4mb 70f 69f
6:42am 9 11 mph 1012.3mb 70f 69f
6:36am 9 10 mph 1012.4mb 70f 69f
6:30am 7 9 mph 1012.4mb 70f 69f
6:24am 6 8 mph 1012.3mb 70f 69f
6:18am 8 11 mph 1012.4mb 70f 70f